Flag for U.S.A. Weather past 2 weeks in San Bernardino, California, U.S.A.

Now
83 °F

Sunny.


Feels Like: 80 °F
Forecast: 57 / 83 °F
Wind: 15 mph from Northeast

Location: Riverside Municipal Airport

Current Time: Apr 27, 2015 at 1:43:25 PM

Latest Report: Apr 27, 2015 at 12:53 PM


Visibility: 10 mi

Pressure: 29.89 "Hg

Humidity: 8%

Dew point: 16 °F

Location of San BernardinoLocation

Historic Weather in San Bernardino — Graph

°F

San Bernardino temperature yesterday

Maximum temperature yesterday: 75 °F (at 2:53 PM)
Minimum temperature yesterday: 50 °F (at 4:53 AM)
Average temperature yesterday: 62 °F

Past Weeks' High & Low Weather Summary

 TemperatureHumidityPressure
High85 °F (Apr 17, 1:53 PM)93% (Apr 26, 2:53 AM)30.07 "Hg (Apr 26, 2:53 AM)
Low50 °F (Apr 26, 4:53 AM)5% (Apr 15, 5:53 PM)29.76 "Hg (Apr 20, 3:53 PM)
Average64 °F50%29.92 "Hg
* Reported Apr 12 11:53 AM — Apr 27 11:53 AM, San Bernardino, Weather by CustomWeather, © 2015

Note: Actual official high and low records may vary slightly from our data, if they occured in-between our weather recording intervals... More about our weather records

Advertising

San Bernardino weather history for previous 24 hours

 ConditionsComfort  
Time TempWeatherWind HumidityBarometerVisibility
11:53 AM
Mon, Apr 27
81 °FSunny.14 mph9%29.91 "Hg10 mi
10:53 AM79 °FSunny.14 mph10%29.92 "Hg10 mi
9:53 AM76 °FSunny.12 mph12%29.94 "Hg10 mi
8:53 AM74 °FSunny.12 mph13%29.94 "Hg10 mi
7:53 AM72 °FSunny.9 mph14%29.93 "Hg10 mi
6:53 AM70 °FClear.10 mph16%29.90 "Hg10 mi
5:53 AM70 °FClear.14 mph18%29.87 "Hg10 mi
4:53 AM68 °FClear.6 mph23%29.88 "Hg10 mi
3:53 AM68 °FClear.9 mph26%29.87 "Hg10 mi
2:53 AM67 °FClear.6 mph31%29.87 "Hg10 mi
1:53 AM59 °FClear.3 mph62%29.88 "Hg10 mi
12:53 AM58 °FClear.3 mph67%29.90 "Hg10 mi
11:53 PM
Sun, Apr 26
60 °FClear.No wind58%29.91 "Hg10 mi
10:53 PM62 °FClear.5 mph52%29.91 "Hg10 mi
9:53 PM64 °FClear.No wind47%29.90 "Hg10 mi
8:53 PM66 °FClear.No wind40%29.89 "Hg10 mi
7:53 PM67 °FSunny.No wind39%29.87 "Hg10 mi
6:53 PM68 °FSunny.6 mph39%29.86 "Hg10 mi
5:53 PM70 °FSunny.15 mph41%29.85 "Hg10 mi
4:53 PM74 °FSunny.12 mph40%29.85 "Hg10 mi
3:53 PM75 °FPartly sunny.16 mph37%29.85 "Hg10 mi
2:53 PM75 °FSunny.12 mph33%29.89 "Hg10 mi
1:53 PM74 °FSunny.9 mph33%29.90 "Hg10 mi
Weather by CustomWeather, © 2015

See weather overviewHow to use our weather pages